Weather History for Gustavus, AK

Change the Weather History Date:

Friday, August 8, 2014

  Actual Average Record
Temperature  
Mean Temperature 60 °F -  
Max Temperature 64 °F 64 °F 87 °F (1957)
Min Temperature 55 °F 47 °F 34 °F (1986)
Degree Days  
Heating Degree Days 6    
Growing Degree Days 10 (Base 50)    
Moisture  
Dew Point 50 °F    
Average Humidity 72    
Maximum Humidity 88    
Minimum Humidity 56    
Precipitation  
Precipitation 0.00 in - - ()
Sea Level Pressure  
Sea Level Pressure 29.97 in    
Wind  
Wind Speed 4 mph (ESE)    
Max Wind Speed 14 mph    
Max Gust Speed 16 mph    
Visibility 10 miles    
Events      
Averages and records for this station are not official NWS values.
T = Trace of Precipitation, MM = Missing Value Source: NWS Daily Summary

Daily Weather History Graph

Daily Weather History Graph

Search for Another Location

Airport:

Trip Planner

Search our weather history database for the weather conditions in past years. The results will help you decide how hot, cold, wet, or windy it might be!

Date:

Astronomy

Aug. 08, 2014 Rise Set
Actual Time 5:09 AM AKDT 9:06 PM AKDT
Civil Twilight 4:18 AM AKDT 9:56 PM AKDT
Nautical Twilight 3:00 AM AKDT 11:12 PM AKDT
Astronomical Twilight 1:40 AM AKDT 12:35 AM AKDT
Moon 7:26 PM AKDT (8/8) 2:41 AM AKDT (8/8)
Length of Visible Light 17h 38m
Length of Day
15h 56m
Waxing Gibbous, 94% of the Moon is Illuminated
Aug 8
Waxing Gibbous
Aug 10
Full
Aug 17
Last Quarter
Aug 25
New
Sep 2
First Quarter

Hourly Weather History & Observations

Time (AKDT) Temp. Dew Point Humidity Pressure Visibility Wind Dir Wind Speed Gust Speed Precip Events Conditions
12:16 AM 57.2 °F 50.0 °F 77% 29.95 in 10.0 mi Calm Calm - N/A   Overcast
12:55 AM 57.2 °F 50.0 °F 77% 29.95 in 10.0 mi Calm Calm - N/A   Overcast
1:53 AM 55.4 °F 48.2 °F 77% 29.96 in 10.0 mi Calm Calm - N/A   Overcast
3:05 AM 55.4 °F 48.2 °F 77% 29.96 in 10.0 mi Calm Calm - N/A   Overcast
3:53 AM 55.4 °F 50.0 °F 82% 29.96 in 10.0 mi Calm Calm - N/A   Overcast
4:53 AM 55.4 °F 51.8 °F 88% 29.96 in 10.0 mi Calm Calm - N/A   Overcast
10:28 AM 60.8 °F 51.8 °F 72% 29.98 in 10.0 mi East 9.2 mph - N/A   Overcast
11:31 AM 62.6 °F 48.2 °F 59% 29.98 in 10.0 mi SE 11.5 mph - N/A   Overcast
12:51 PM 62.6 °F 48.2 °F 59% 29.99 in 10.0 mi ESE 9.2 mph 16.1 mph N/A   Overcast
1:56 PM 64.4 °F 48.2 °F 56% 29.99 in 10.0 mi ESE 9.2 mph - N/A   Overcast
2:51 PM 62.6 °F 48.2 °F 59% 29.99 in 10.0 mi ESE 10.4 mph - N/A   Overcast
4:21 PM 60.8 °F 50.0 °F 68% 29.99 in 10.0 mi East 13.8 mph - N/A   Overcast
5:32 PM 60.8 °F 50.0 °F 68% 29.98 in 10.0 mi East 8.1 mph - N/A   Overcast
6:12 PM 62.6 °F 50.0 °F 63% 29.97 in 10.0 mi East 8.1 mph - N/A   Mostly Cloudy
7:13 PM 60.8 °F 51.8 °F 72% 29.97 in 10.0 mi ESE 5.8 mph - N/A   Overcast
8:26 PM 59.0 °F 51.8 °F 77% 29.96 in 10.0 mi ESE 8.1 mph - N/A   Overcast
9:21 PM 57.2 °F 51.8 °F 82% 29.97 in 10.0 mi ESE 10.4 mph - N/A   Overcast
10:15 PM 57.2 °F 51.8 °F 82% 29.97 in 10.0 mi ESE 9.2 mph - N/A   Overcast
11:16 PM 57.2 °F 51.8 °F 82% 29.97 in 10.0 mi ESE 10.4 mph 16.1 mph N/A   Overcast